| time (UTC) | temp C | wind direction | speed KPH | gust KPH | rain 1hr cm | rain 24hr cm | rain mn cm | humidity % | barometer mb |
| 20260902014600 | 18 | 191 | 4.8 | 12.9 | 0.00 | 0.00 | 0.00 | 44 | 1013.0 |
| 20260902014043 | 18 | 216 | 3.2 | 12.9 | 0.00 | 0.00 | 0.00 | 42 | 1013.0 |
| 20260902013545 | 19 | 178 | 3.2 | 12.9 | 0.00 | 0.00 | 0.00 | 42 | 1012.9 |
| 20260902013051 | 19 | 190 | 3.2 | 17.7 | 0.00 | 0.00 | 0.00 | 42 | 1013.0 |
| 20260902012542 | 19 | 249 | 4.8 | 17.7 | 0.00 | 0.00 | 0.00 | 41 | 1012.9 |
| 20260902012042 | 20 | 197 | 4.8 | 12.9 | 0.00 | 0.00 | 0.00 | 40 | 1012.8 |
| 20260902011550 | 20 | 198 | 0.0 | 14.5 | 0.00 | 0.00 | 0.00 | 40 | 1012.9 |
| 20260902011044 | 20 | 205 | 1.6 | 14.5 | 0.00 | 0.00 | 0.00 | 39 | 1012.8 |
| 20260902010543 | 20 | 0 | 1.6 | 11.3 | 0.00 | 0.00 | 0.00 | 38 | 1012.8 |
| 20260902010058 | 20 | 205 | 3.2 | 11.3 | 0.00 | 0.00 | 0.00 | 38 | 1012.8 |
| 20260902005548 | 20 | 0 | 1.6 | 12.9 | 0.00 | 0.00 | 0.00 | 39 | 1012.7 |
| 20260902005043 | 20 | 215 | 3.2 | 12.9 | 0.00 | 0.00 | 0.00 | 39 | 1012.8 |
| 20260902004555 | 20 | 221 | 3.2 | 14.5 | 0.00 | 0.00 | 0.00 | 38 | 1012.9 |
| 20260902004042 | 20 | 0 | 3.2 | 16.1 | 0.00 | 0.00 | 0.00 | 38 | 1012.8 |
| 20260902003542 | 20 | 180 | 6.4 | 16.1 | 0.00 | 0.00 | 0.00 | 36 | 1012.8 |
| 20260902003101 | 21 | 222 | 4.8 | 14.5 | 0.00 | 0.00 | 0.00 | 35 | 1012.9 |
| 20260902002542 | 21 | 213 | 4.8 | 14.5 | 0.00 | 0.00 | 0.00 | 35 | 1012.8 |
| 20260902002042 | 21 | 227 | 4.8 | 12.9 | 0.00 | 0.00 | 0.00 | 35 | 1012.8 |
| 20260902001551 | 21 | 245 | 4.8 | 14.5 | 0.00 | 0.00 | 0.00 | 34 | 1012.8 |
| 20260902001046 | 21 | 262 | 3.2 | 14.5 | 0.00 | 0.00 | 0.00 | 34 | 1012.8 |
| 20260902000541 | 21 | 196 | 3.2 | 11.3 | 0.00 | 0.00 | 0.00 | 34 | 1012.7 |
| 20260902000052 | 21 | 220 | 3.2 | 14.5 | 0.00 | 0.00 | 0.00 | 34 | 1012.8 |
| 20260901235539 | 22 | 205 | 4.8 | 14.5 | 0.00 | 0.00 | 0.00 | 34 | 1012.8 |
| 20260901235042 | 22 | 225 | 4.8 | 12.9 | 0.00 | 0.00 | 0.00 | 33 | 1012.8 |
| 20260901234606 | 22 | 226 | 1.6 | 17.7 | 0.00 | 0.00 | 0.00 | 34 | 1012.8 |
| 20260901234044 | 22 | 225 | 4.8 | 17.7 | 0.00 | 0.00 | 0.00 | 33 | 1012.8 |
| 20260901233543 | 22 | 213 | 4.8 | 14.5 | 0.00 | 0.00 | 0.00 | 33 | 1012.8 |
| 20260901233104 | 22 | 246 | 1.6 | 17.7 | 0.00 | 0.00 | 0.00 | 33 | 1012.7 |
| 20260901232542 | 22 | 182 | 6.4 | 19.3 | 0.00 | 0.00 | 0.00 | 32 | 1012.7 |
| 20260901232045 | 22 | 210 | 4.8 | 19.3 | 0.00 | 0.00 | 0.00 | 32 | 1012.8 |
| 20260901231553 | 22 | 228 | 4.8 | 20.9 | 0.00 | 0.00 | 0.00 | 33 | 1012.9 |
| 20260901231042 | 22 | 204 | 6.4 | 20.9 | 0.00 | 0.00 | 0.00 | 32 | 1012.9 |
| 20260901230542 | 22 | 0 | 4.8 | 16.1 | 0.00 | 0.00 | 0.00 | 33 | 1012.9 |
| 20260901225542 | 22 | 207 | 6.4 | 22.5 | 0.00 | 0.00 | 0.00 | 31 | 1012.9 |
| 20260901225043 | 22 | 0 | 4.8 | 20.9 | 0.00 | 0.00 | 0.00 | 32 | 1013.0 |
| 20260901224559 | 22 | 195 | 6.4 | 20.9 | 0.00 | 0.00 | 0.00 | 32 | 1012.9 |
| 20260901224043 | 22 | 192 | 4.8 | 14.5 | 0.00 | 0.00 | 0.00 | 32 | 1012.9 |
| 20260901223543 | 22 | 225 | 4.8 | 14.5 | 0.00 | 0.00 | 0.00 | 32 | 1013.0 |
| 20260901223101 | 22 | 196 | 3.2 | 12.9 | 0.00 | 0.00 | 0.00 | 32 | 1012.9 |
| 20260901222543 | 22 | 227 | 4.8 | 19.3 | 0.00 | 0.00 | 0.00 | 32 | 1013.0 |
| 20260901222042 | 22 | 217 | 8.0 | 19.3 | 0.00 | 0.00 | 0.00 | 32 | 1013.0 |
| 20260901221618 | 22 | 235 | 6.4 | 16.1 | 0.00 | 0.00 | 0.00 | 32 | 1013.1 |
| 20260901221043 | 22 | 219 | 3.2 | 17.7 | 0.00 | 0.00 | 0.00 | 33 | 1013.0 |
| 20260901220542 | 22 | 210 | 9.7 | 17.7 | 0.00 | 0.00 | 0.00 | 33 | 1013.3 |
| 20260901220051 | 22 | 186 | 6.4 | 16.1 | 0.00 | 0.00 | 0.00 | 34 | 1013.2 |
| 20260901215543 | 22 | 229 | 3.2 | 12.9 | 0.00 | 0.00 | 0.00 | 34 | 1013.2 |
| 20260901215043 | 22 | 240 | 3.2 | 14.5 | 0.00 | 0.00 | 0.00 | 32 | 1013.3 |
| 20260901214551 | 23 | 199 | 4.8 | 16.1 | 0.00 | 0.00 | 0.00 | 32 | 1013.5 |
| 20260901214043 | 22 | 202 | 1.6 | 16.1 | 0.00 | 0.00 | 0.00 | 32 | 1013.3 |
| 20260901213543 | 22 | 187 | 1.6 | 11.3 | 0.00 | 0.00 | 0.00 | 32 | 1013.3 |
| 20260901213104 | 22 | 190 | 3.2 | 14.5 | 0.00 | 0.00 | 0.00 | 32 | 1013.4 |
| 20260901212544 | 22 | 200 | 6.4 | 16.1 | 0.00 | 0.00 | 0.00 | 32 | 1013.4 |
| 20260901212043 | 22 | 215 | 4.8 | 20.9 | 0.00 | 0.00 | 0.00 | 31 | 1013.3 |
| 20260901211554 | 22 | 205 | 4.8 | 20.9 | 0.00 | 0.00 | 0.00 | 31 | 1013.3 |
| 20260901211042 | 22 | 206 | 1.6 | 17.7 | 0.00 | 0.00 | 0.00 | 34 | 1013.3 |
| 20260901210542 | 22 | 231 | 4.8 | 17.7 | 0.00 | 0.00 | 0.00 | 31 | 1013.4 |
| 20260901210052 | 21 | 0 | 3.2 | 12.9 | 0.00 | 0.00 | 0.00 | 33 | 1013.3 |
| 20260901205543 | 22 | 215 | 3.2 | 12.9 | 0.00 | 0.00 | 0.00 | 33 | 1013.3 |
| 20260901205043 | 22 | 208 | 1.6 | 12.9 | 0.00 | 0.00 | 0.00 | 32 | 1013.3 |
| 20260901204552 | 21 | 219 | 1.6 | 14.5 | 0.00 | 0.00 | 0.00 | 33 | 1013.2 |
| 20260901204043 | 21 | 207 | 4.8 | 17.7 | 0.00 | 0.00 | 0.00 | 33 | 1013.3 |
| 20260901203544 | 21 | 206 | 6.4 | 17.7 | 0.00 | 0.00 | 0.00 | 33 | 1013.4 |
| 20260901203102 | 21 | 237 | 1.6 | 12.9 | 0.00 | 0.00 | 0.00 | 33 | 1013.5 |
| 20260901202542 | 21 | 252 | 4.8 | 14.5 | 0.00 | 0.00 | 0.00 | 34 | 1013.6 |
| 20260901202042 | 21 | 210 | 1.6 | 14.5 | 0.00 | 0.00 | 0.00 | 36 | 1013.6 |
| 20260901201556 | 21 | 225 | 4.8 | 11.3 | 0.00 | 0.00 | 0.00 | 36 | 1013.8 |
| 20260901201042 | 21 | 230 | 3.2 | 14.5 | 0.00 | 0.00 | 0.00 | 36 | 1013.8 |
| 20260901200542 | 21 | 192 | 8.0 | 16.1 | 0.00 | 0.00 | 0.00 | 34 | 1014.0 |
| 20260901200052 | 21 | 209 | 3.2 | 16.1 | 0.00 | 0.00 | 0.00 | 35 | 1014.0 |
| 20260901195543 | 21 | 207 | 3.2 | 19.3 | 0.00 | 0.00 | 0.00 | 35 | 1014.0 |
| 20260901195042 | 21 | 218 | 4.8 | 19.3 | 0.00 | 0.00 | 0.00 | 34 | 1014.1 |
| 20260901194600 | 21 | 198 | 1.6 | 12.9 | 0.00 | 0.00 | 0.00 | 36 | 1014.0 |
| 20260901194042 | 21 | 209 | 4.8 | 14.5 | 0.00 | 0.00 | 0.00 | 35 | 1014.0 |
| 20260901193542 | 21 | 229 | 6.4 | 14.5 | 0.00 | 0.00 | 0.00 | 35 | 1014.1 |
| 20260901193110 | 21 | 184 | 1.6 | 12.9 | 0.00 | 0.00 | 0.00 | 37 | 1014.2 |
| 20260901192542 | 21 | 214 | 1.6 | 9.7 | 0.00 | 0.00 | 0.00 | 40 | 1014.1 |
| 20260901192042 | 21 | 0 | 1.6 | 11.3 | 0.00 | 0.00 | 0.00 | 38 | 1014.1 |
| 20260901191557 | 20 | 0 | 3.2 | 14.5 | 0.00 | 0.00 | 0.00 | 40 | 1014.4 |
| 20260901191039 | 20 | 281 | 4.8 | 14.5 | 0.00 | 0.00 | 0.00 | 40 | 1014.3 |
| 20260901190539 | 20 | 215 | 4.8 | 12.9 | 0.00 | 0.00 | 0.00 | 40 | 1014.2 |
| 20260901190100 | 20 | 246 | 3.2 | 11.3 | 0.00 | 0.00 | 0.00 | 40 | 1014.2 |
| 20260901185543 | 19 | 0 | 1.6 | 8.0 | 0.00 | 0.00 | 0.00 | 41 | 1014.3 |
| 20260901185042 | 19 | 197 | 0.0 | 9.7 | 0.00 | 0.00 | 0.00 | 43 | 1014.2 |
| 20260901184606 | 19 | 202 | 1.6 | 9.7 | 0.00 | 0.00 | 0.00 | 41 | 1014.3 |
| 20260901184043 | 19 | 232 | 3.2 | 9.7 | 0.00 | 0.00 | 0.00 | 43 | 1014.3 |
| 20260901183546 | 18 | 252 | 1.6 | 9.7 | 0.00 | 0.00 | 0.00 | 44 | 1014.3 |
| 20260901183058 | 18 | 217 | 3.2 | 9.7 | 0.00 | 0.00 | 0.00 | 42 | 1014.2 |
| 20260901182546 | 19 | 0 | 3.2 | 9.7 | 0.00 | 0.00 | 0.00 | 41 | 1014.3 |
| 20260901182043 | 19 | 207 | 1.6 | 9.7 | 0.00 | 0.00 | 0.00 | 42 | 1014.3 |
| 20260901181554 | 19 | 216 | 1.6 | 12.9 | 0.00 | 0.00 | 0.00 | 43 | 1014.3 |
| 20260901181042 | 19 | 219 | 1.6 | 14.5 | 0.00 | 0.00 | 0.00 | 43 | 1014.4 |
| 20260901180547 | 19 | 205 | 6.4 | 14.5 | 0.00 | 0.00 | 0.00 | 42 | 1014.2 |
| 20260901180100 | 19 | 0 | 1.6 | 8.0 | 0.00 | 0.00 | 0.00 | 43 | 1014.2 |
| 20260901175544 | 18 | 229 | 1.6 | 11.3 | 0.00 | 0.00 | 0.00 | 43 | 1014.1 |
| 20260901175042 | 18 | 234 | 1.6 | 16.1 | 0.00 | 0.00 | 0.00 | 43 | 1014.2 |
| 20260901174600 | 18 | 241 | 4.8 | 16.1 | 0.00 | 0.00 | 0.00 | 42 | 1014.0 |
| 20260901174042 | 18 | 208 | 4.8 | 16.1 | 0.00 | 0.00 | 0.00 | 44 | 1014.0 |
| 20260901173541 | 17 | 236 | 3.2 | 14.5 | 0.00 | 0.00 | 0.00 | 44 | 1014.0 |
| 20260901173053 | 17 | 219 | 1.6 | 12.9 | 0.00 | 0.00 | 0.00 | 45 | 1013.9 |
| 20260901172543 | 18 | 198 | 3.2 | 12.9 | 0.00 | 0.00 | 0.00 | 44 | 1013.9 |
| 20260901172039 | 18 | 217 | 1.6 | 9.7 | 0.00 | 0.00 | 0.00 | 43 | 1013.9 |
| 20260901171600 | 17 | 0 | 1.6 | 9.7 | 0.00 | 0.00 | 0.00 | 45 | 1013.8 |
| 20260901171044 | 17 | 0 | 0.0 | 0.0 | 0.00 | 0.00 | 0.00 | 46 | 1013.8 |
| 20260901170542 | 17 | 0 | 0.0 | 12.9 | 0.00 | 0.00 | 0.00 | 47 | 1013.6 |
| 20260901170050 | 17 | 0 | 0.0 | 12.9 | 0.00 | 0.00 | 0.00 | 46 | 1013.6 |
| 20260901165541 | 17 | 198 | 3.2 | 12.9 | 0.00 | 0.00 | 0.00 | 46 | 1013.6 |
| 20260901165042 | 17 | 219 | 3.2 | 11.3 | 0.00 | 0.00 | 0.00 | 46 | 1013.7 |
| 20260901164558 | 17 | 211 | 1.6 | 12.9 | 0.00 | 0.00 | 0.00 | 49 | 1013.7 |
| 20260901164039 | 17 | 210 | 3.2 | 12.9 | 0.00 | 0.00 | 0.00 | 50 | 1013.7 |
| 20260901163542 | 17 | 216 | 3.2 | 11.3 | 0.00 | 0.00 | 0.00 | 50 | 1013.7 |
| 20260901163056 | 17 | 207 | 4.8 | 11.3 | 0.00 | 0.00 | 0.00 | 50 | 1013.7 |
| 20260901162542 | 17 | 0 | 3.2 | 12.9 | 0.00 | 0.00 | 0.00 | 50 | 1013.6 |
| 20260901162042 | 17 | 218 | 3.2 | 12.9 | 0.00 | 0.00 | 0.00 | 49 | 1013.6 |
| 20260901161550 | 17 | 221 | 1.6 | 8.0 | 0.00 | 0.00 | 0.00 | 50 | 1013.6 |
| 20260901161047 | 17 | 0 | 0.0 | 8.0 | 0.00 | 0.00 | 0.00 | 52 | 1013.5 |
| 20260901160545 | 17 | 202 | 3.2 | 8.0 | 0.00 | 0.00 | 0.00 | 51 | 1013.6 |
| 20260901160100 | 16 | 222 | 0.0 | 11.3 | 0.00 | 0.00 | 0.00 | 52 | 1013.6 |
| 20260901155540 | 16 | 0 | 1.6 | 14.5 | 0.00 | 0.00 | 0.00 | 53 | 1013.4 |
| 20260901155042 | 16 | 224 | 3.2 | 14.5 | 0.00 | 0.00 | 0.00 | 52 | 1013.3 |
| 20260901154557 | 16 | 0 | 1.6 | 11.3 | 0.00 | 0.00 | 0.00 | 52 | 1013.2 |
| 20260901154042 | 16 | 220 | 4.8 | 11.3 | 0.00 | 0.00 | 0.00 | 52 | 1013.2 |
| 20260901153540 | 16 | 205 | 1.6 | 9.7 | 0.00 | 0.00 | 0.00 | 53 | 1013.1 |
| 20260901153053 | 16 | 229 | 3.2 | 9.7 | 0.00 | 0.00 | 0.00 | 53 | 1013.0 |
| 20260901152540 | 16 | 213 | 1.6 | 8.0 | 0.00 | 0.00 | 0.00 | 54 | 1013.0 |
| 20260901152041 | 16 | 0 | 1.6 | 8.0 | 0.00 | 0.00 | 0.00 | 53 | 1013.0 |
| 20260901151604 | 16 | 216 | 1.6 | 6.4 | 0.00 | 0.00 | 0.00 | 53 | 1013.1 |
| 20260901151041 | 16 | 236 | 0.0 | 4.8 | 0.00 | 0.00 | 0.00 | 53 | 1013.0 |
| 20260901150540 | 16 | 0 | 1.6 | 6.4 | 0.00 | 0.00 | 0.00 | 53 | 1013.0 |
| 20260901150111 | 16 | 0 | 1.6 | 6.4 | 0.00 | 0.00 | 0.00 | 53 | 1012.9 |
| 20260901145543 | 15 | 0 | 0.0 | 3.2 | 0.00 | 0.00 | 0.00 | 53 | 1012.8 |
| 20260901145040 | 15 | 0 | 0.0 | 3.2 | 0.00 | 0.00 | 0.00 | 53 | 1012.9 |
| 20260901144552 | 15 | 0 | 0.0 | 12.9 | 0.00 | 0.00 | 0.00 | 53 | 1012.8 |
| 20260901144040 | 15 | 0 | 1.6 | 12.9 | 0.00 | 0.00 | 0.00 | 53 | 1012.8 |
| 20260901143542 | 15 | 0 | 0.0 | 3.2 | 0.00 | 0.00 | 0.00 | 53 | 1012.7 |
| 20260901143106 | 15 | 0 | 0.0 | 3.2 | 0.00 | 0.00 | 0.00 | 53 | 1012.6 |
| 20260901142542 | 15 | 0 | 0.0 | 3.2 | 0.00 | 0.00 | 0.00 | 53 | 1012.5 |
| 20260901142041 | 15 | 0 | 0.0 | 3.2 | 0.00 | 0.00 | 0.00 | 53 | 1012.4 |
| 20260901141600 | 15 | 0 | 0.0 | 1.6 | 0.00 | 0.00 | 0.00 | 54 | 1012.4 |
| 20260901141041 | 15 | 0 | 0.0 | 3.2 | 0.00 | 0.00 | 0.00 | 54 | 1012.3 |
| 20260901140541 | 15 | 0 | 0.0 | 3.2 | 0.00 | 0.00 | 0.00 | 53 | 1012.3 |
| 20260901140117 | 15 | 0 | 0.0 | 3.2 | 0.00 | 0.00 | 0.00 | 54 | 1012.2 |
| 20260901135541 | 15 | 0 | 0.0 | 3.2 | 0.00 | 0.00 | 0.00 | 54 | 1012.1 |
| 20260901135045 | 15 | 0 | 0.0 | 3.2 | 0.00 | 0.00 | 0.00 | 54 | 1012.0 |
| 20260901134626 | 15 | 209 | 0.0 | 1.6 | 0.00 | 0.00 | 0.00 | 54 | 1011.9 |
| 20260901134040 | 15 | 0 | 0.0 | 1.6 | 0.00 | 0.00 | 0.00 | 54 | 1011.9 |
| 20260901133546 | 15 | 0 | 0.0 | 1.6 | 0.00 | 0.00 | 0.00 | 54 | 1011.8 |
| 20260901133059 | 15 | 0 | 0.0 | 1.6 | 0.00 | 0.00 | 0.00 | 54 | 1011.8 |
| 20260901132540 | 15 | 0 | 0.0 | 1.6 | 0.00 | 0.00 | 0.00 | 54 | 1011.8 |
| 20260901132041 | 15 | 0 | 0.0 | 1.6 | 0.00 | 0.00 | 0.00 | 55 | 1011.8 |
| 20260901131555 | 15 | 0 | 0.0 | 1.6 | 0.00 | 0.00 | 0.00 | 55 | 1011.6 |
| 20260901131041 | 15 | 0 | 0.0 | 1.6 | 0.00 | 0.00 | 0.00 | 55 | 1011.5 |
| 20260901130544 | 15 | 0 | 0.0 | 1.6 | 0.00 | 0.00 | 0.00 | 55 | 1011.5 |
| 20260901130110 | 15 | 0 | 0.0 | 1.6 | 0.00 | 0.00 | 0.00 | 55 | 1011.6 |
| 20260901125540 | 15 | 0 | 0.0 | 1.6 | 0.00 | 0.00 | 0.00 | 55 | 1011.8 |
| 20260901125040 | 15 | 0 | 0.0 | 1.6 | 0.00 | 0.00 | 0.00 | 55 | 1011.8 |
| 20260901124603 | 15 | 0 | 0.0 | 3.2 | 0.00 | 0.00 | 0.00 | 55 | 1011.6 |
| 20260901124044 | 15 | 0 | 0.0 | 3.2 | 0.00 | 0.00 | 0.00 | 55 | 1011.4 |
| 20260901123541 | 15 | 0 | 0.0 | 1.6 | 0.00 | 0.00 | 0.00 | 55 | 1011.3 |
| 20260901123052 | 15 | 0 | 0.0 | 3.2 | 0.00 | 0.00 | 0.00 | 55 | 1011.4 |
| 20260901122545 | 15 | 0 | 0.0 | 3.2 | 0.00 | 0.00 | 0.00 | 55 | 1011.3 |
| 20260901122044 | 15 | 0 | 0.0 | 1.6 | 0.00 | 0.00 | 0.00 | 55 | 1011.3 |
| 20260901121555 | 15 | 0 | 0.0 | 1.6 | 0.00 | 0.00 | 0.00 | 54 | 1011.3 |
| 20260901121042 | 15 | 0 | 0.0 | 1.6 | 0.00 | 0.00 | 0.00 | 54 | 1011.2 |
| 20260901120542 | 15 | 0 | 0.0 | 1.6 | 0.00 | 0.00 | 0.00 | 54 | 1011.2 |
| 20260901115541 | 15 | 209 | 0.0 | 3.2 | 0.00 | 0.00 | 0.00 | 54 | 1011.4 |
| 20260901115041 | 15 | 0 | 0.0 | 4.8 | 0.00 | 0.00 | 0.00 | 54 | 1011.4 |
| 20260901114553 | 15 | 0 | 0.0 | 4.8 | 0.00 | 0.00 | 0.00 | 54 | 1011.4 |
| 20260901114040 | 15 | 209 | 1.6 | 4.8 | 0.00 | 0.00 | 0.00 | 54 | 1011.4 |
| 20260901113540 | 15 | 0 | 0.0 | 6.4 | 0.00 | 0.00 | 0.00 | 54 | 1011.5 |
| 20260901113110 | 15 | 208 | 0.0 | 6.4 | 0.00 | 0.00 | 0.00 | 54 | 1011.4 |
| 20260901112542 | 15 | 0 | 0.0 | 6.4 | 0.00 | 0.00 | 0.00 | 54 | 1011.5 |
| 20260901112040 | 15 | 208 | 1.6 | 9.7 | 0.00 | 0.00 | 0.00 | 54 | 1011.5 |
| 20260901111601 | 15 | 202 | 1.6 | 9.7 | 0.00 | 0.00 | 0.00 | 54 | 1011.5 |
| 20260901111041 | 15 | 202 | 1.6 | 9.7 | 0.00 | 0.00 | 0.00 | 54 | 1011.5 |
| 20260901110540 | 15 | 221 | 1.6 | 4.8 | 0.00 | 0.00 | 0.00 | 54 | 1011.6 |
| 20260901110106 | 15 | 221 | 0.0 | 6.4 | 0.00 | 0.00 | 0.00 | 54 | 1011.4 |
| 20260901105543 | 15 | 0 | 3.2 | 6.4 | 0.00 | 0.00 | 0.00 | 54 | 1011.4 |
| 20260901105044 | 15 | 0 | 0.0 | 4.8 | 0.00 | 0.00 | 0.00 | 54 | 1011.3 |
| 20260901104601 | 15 | 0 | 0.0 | 4.8 | 0.00 | 0.00 | 0.00 | 54 | 1011.4 |
| 20260901104041 | 15 | 0 | 0.0 | 4.8 | 0.00 | 0.00 | 0.00 | 54 | 1011.4 |
| 20260901103540 | 15 | 217 | 0.0 | 1.6 | 0.00 | 0.00 | 0.00 | 54 | 1011.4 |
| 20260901103052 | 15 | 0 | 0.0 | 6.4 | 0.00 | 0.00 | 0.00 | 54 | 1011.4 |
| 20260901102540 | 15 | 0 | 0.0 | 6.4 | 0.00 | 0.00 | 0.00 | 54 | 1011.4 |
| 20260901102042 | 15 | 217 | 1.6 | 6.4 | 0.00 | 0.00 | 0.00 | 54 | 1011.4 |
| 20260901101610 | 15 | 0 | 0.0 | 4.8 | 0.00 | 0.00 | 0.00 | 54 | 1011.3 |
| 20260901101042 | 15 | 0 | 0.0 | 6.4 | 0.00 | 0.00 | 0.00 | 54 | 1011.3 |
| 20260901100539 | 15 | 211 | 1.6 | 6.4 | 0.00 | 0.00 | 0.00 | 54 | 1011.1 |
| 20260901100106 | 15 | 0 | 0.0 | 4.8 | 0.00 | 0.00 | 0.00 | 54 | 1011.2 |
| 20260901095541 | 15 | 0 | 0.0 | 3.2 | 0.00 | 0.00 | 0.00 | 54 | 1011.2 |
| 20260901095044 | 15 | 0 | 0.0 | 4.8 | 0.00 | 0.00 | 0.00 | 54 | 1011.1 |
| 20260901094554 | 15 | 211 | 0.0 | 4.8 | 0.00 | 0.00 | 0.00 | 54 | 1011.2 |
| 20260901094041 | 15 | 210 | 0.0 | 8.0 | 0.00 | 0.00 | 0.00 | 53 | 1011.2 |
| 20260901093542 | 15 | 0 | 0.0 | 8.0 | 0.00 | 0.00 | 0.00 | 53 | 1011.2 |
| 20260901093102 | 15 | 0 | 0.0 | 4.8 | 0.00 | 0.00 | 0.00 | 53 | 1011.2 |
| 20260901092542 | 15 | 217 | 0.0 | 4.8 | 0.00 | 0.00 | 0.00 | 53 | 1011.3 |
| 20260901092039 | 15 | 0 | 1.6 | 4.8 | 0.00 | 0.00 | 0.00 | 53 | 1011.4 |
| 20260901091557 | 15 | 217 | 0.0 | 4.8 | 0.00 | 0.00 | 0.00 | 54 | 1011.4 |
| 20260901091041 | 15 | 0 | 0.0 | 8.0 | 0.00 | 0.00 | 0.00 | 53 | 1011.4 |
| 20260901090540 | 15 | 217 | 1.6 | 8.0 | 0.00 | 0.00 | 0.00 | 53 | 1011.4 |
| 20260901090105 | 15 | 227 | 0.0 | 6.4 | 0.00 | 0.00 | 0.00 | 54 | 1011.5 |
| 20260901085542 | 15 | 0 | 1.6 | 6.4 | 0.00 | 0.00 | 0.00 | 54 | 1011.4 |
| 20260901085041 | 15 | 0 | 1.6 | 6.4 | 0.00 | 0.00 | 0.00 | 54 | 1011.5 |
| 20260901084550 | 15 | 221 | 1.6 | 8.0 | 0.00 | 0.00 | 0.00 | 53 | 1011.5 |
| 20260901084040 | 15 | 221 | 1.6 | 8.0 | 0.00 | 0.00 | 0.00 | 53 | 1011.4 |
| 20260901083539 | 15 | 224 | 0.0 | 6.4 | 0.00 | 0.00 | 0.00 | 54 | 1011.5 |
| 20260901083049 | 15 | 223 | 0.0 | 6.4 | 0.00 | 0.00 | 0.00 | 54 | 1011.5 |
| 20260901082539 | 15 | 222 | 1.6 | 4.8 | 0.00 | 0.00 | 0.00 | 54 | 1011.5 |
| 20260901082044 | 15 | 0 | 0.0 | 8.0 | 0.00 | 0.00 | 0.00 | 54 | 1011.3 |
| 20260901081559 | 15 | 0 | 1.6 | 8.0 | 0.00 | 0.00 | 0.00 | 54 | 1011.4 |
| 20260901081042 | 15 | 222 | 0.0 | 6.4 | 0.00 | 0.00 | 0.00 | 54 | 1011.4 |
| 20260901080542 | 15 | 222 | 1.6 | 9.7 | 0.00 | 0.00 | 0.00 | 54 | 1011.4 |
| 20260901080054 | 15 | 218 | 3.2 | 9.7 | 0.00 | 0.00 | 0.00 | 54 | 1011.5 |
| 20260901075541 | 15 | 215 | 1.6 | 11.3 | 0.00 | 0.00 | 0.00 | 54 | 1011.2 |
| 20260901075045 | 15 | 221 | 0.0 | 11.3 | 0.00 | 0.00 | 0.00 | 54 | 1011.3 |
| 20260901074551 | 15 | 230 | 1.6 | 8.0 | 0.00 | 0.00 | 0.00 | 54 | 1011.3 |
| 20260901074040 | 15 | 198 | 1.6 | 8.0 | 0.00 | 0.00 | 0.00 | 55 | 1011.3 |
| 20260901073540 | 15 | 215 | 3.2 | 6.4 | 0.00 | 0.00 | 0.00 | 55 | 1011.3 |
| 20260901073059 | 15 | 0 | 0.0 | 9.7 | 0.00 | 0.00 | 0.00 | 55 | 1011.2 |
| 20260901072542 | 15 | 0 | 1.6 | 14.5 | 0.00 | 0.00 | 0.00 | 55 | 1011.3 |
| 20260901072043 | 15 | 240 | 3.2 | 14.5 | 0.00 | 0.00 | 0.00 | 55 | 1011.2 |
| 20260901071555 | 15 | 223 | 0.0 | 4.8 | 0.00 | 0.00 | 0.00 | 55 | 1011.2 |
| 20260901071040 | 15 | 0 | 0.0 | 11.3 | 0.00 | 0.00 | 0.00 | 55 | 1011.3 |
| 20260901070542 | 15 | 223 | 3.2 | 12.9 | 0.00 | 0.00 | 0.00 | 55 | 1011.3 |
| 20260901065544 | 15 | 198 | 1.6 | 11.3 | 0.00 | 0.00 | 0.00 | 55 | 1011.4 |
| 20260901065040 | 15 | 236 | 1.6 | 11.3 | 0.00 | 0.00 | 0.00 | 55 | 1011.3 |
| 20260901064558 | 15 | 217 | 3.2 | 12.9 | 0.00 | 0.00 | 0.00 | 55 | 1011.3 |
| 20260901064043 | 15 | 212 | 3.2 | 14.5 | 0.00 | 0.00 | 0.00 | 55 | 1011.4 |
| 20260901063542 | 15 | 223 | 3.2 | 14.5 | 0.00 | 0.00 | 0.00 | 55 | 1011.2 |
| 20260901063059 | 15 | 217 | 4.8 | 12.9 | 0.00 | 0.00 | 0.00 | 55 | 1011.1 |
| 20260901062541 | 15 | 273 | 1.6 | 14.5 | 0.00 | 0.00 | 0.00 | 56 | 1011.2 |
| 20260901062045 | 15 | 206 | 4.8 | 14.5 | 0.00 | 0.00 | 0.00 | 56 | 1011.2 |
| 20260901061558 | 15 | 205 | 3.2 | 8.0 | 0.00 | 0.00 | 0.00 | 55 | 1011.3 |
| 20260901061039 | 15 | 218 | 3.2 | 12.9 | 0.00 | 0.00 | 0.00 | 55 | 1011.3 |
| 20260901060543 | 15 | 227 | 3.2 | 12.9 | 0.00 | 0.00 | 0.00 | 55 | 1011.3 |
| 20260901060059 | 15 | 224 | 4.8 | 9.7 | 0.00 | 0.00 | 0.00 | 55 | 1011.4 |
| 20260901055540 | 15 | 200 | 1.6 | 9.7 | 0.00 | 0.00 | 0.00 | 55 | 1011.5 |
| 20260901055040 | 15 | 217 | 3.2 | 9.7 | 0.00 | 0.00 | 0.00 | 55 | 1011.5 |
| 20260901054553 | 15 | 0 | 3.2 | 9.7 | 0.00 | 0.00 | 0.00 | 55 | 1011.5 |
| 20260901054040 | 15 | 199 | 4.8 | 16.1 | 0.00 | 0.00 | 0.00 | 56 | 1011.4 |
| 20260901053541 | 15 | 215 | 8.0 | 16.1 | 0.00 | 0.00 | 0.00 | 56 | 1011.4 |
| 20260901053107 | 15 | 221 | 4.8 | 16.1 | 0.00 | 0.00 | 0.00 | 56 | 1011.4 |
| 20260901052540 | 15 | 223 | 4.8 | 16.1 | 0.00 | 0.00 | 0.00 | 56 | 1011.2 |
| 20260901052040 | 15 | 223 | 1.6 | 12.9 | 0.00 | 0.00 | 0.00 | 57 | 1011.2 |
| 20260901051551 | 15 | 187 | 3.2 | 11.3 | 0.00 | 0.00 | 0.00 | 57 | 1011.2 |
| 20260901051040 | 15 | 217 | 3.2 | 11.3 | 0.00 | 0.00 | 0.00 | 57 | 1011.2 |
| 20260901050541 | 15 | 207 | 1.6 | 9.7 | 0.00 | 0.00 | 0.00 | 57 | 1011.2 |
| 20260901050049 | 14 | 205 | 4.8 | 9.7 | 0.00 | 0.00 | 0.00 | 57 | 1011.2 |
| 20260901045541 | 15 | 0 | 0.0 | 3.2 | 0.00 | 0.00 | 0.00 | 57 | 1011.3 |
| 20260901045040 | 15 | 0 | 0.0 | 1.6 | 0.00 | 0.00 | 0.00 | 57 | 1011.3 |
| 20260901044617 | 15 | 0 | 0.0 | 4.8 | 0.00 | 0.00 | 0.00 | 56 | 1011.3 |
| 20260901044041 | 15 | 0 | 0.0 | 6.4 | 0.00 | 0.00 | 0.00 | 57 | 1011.3 |
| 20260901043541 | 15 | 202 | 0.0 | 6.4 | 0.00 | 0.00 | 0.00 | 57 | 1011.3 |
| 20260901043130 | 15 | 200 | 0.0 | 1.6 | 0.00 | 0.00 | 0.00 | 57 | 1011.3 |
| 20260901042542 | 15 | 0 | 0.0 | 8.0 | 0.00 | 0.00 | 0.00 | 57 | 1011.3 |
| 20260901042040 | 15 | 0 | 0.0 | 8.0 | 0.00 | 0.00 | 0.00 | 57 | 1011.2 |
| 20260901041550 | 15 | 0 | 0.0 | 4.8 | 0.00 | 0.00 | 0.00 | 57 | 1011.2 |
| 20260901041042 | 15 | 0 | 0.0 | 4.8 | 0.00 | 0.00 | 0.00 | 57 | 1011.2 |
| 20260901040540 | 15 | 0 | 0.0 | 4.8 | 0.00 | 0.00 | 0.00 | 57 | 1011.2 |
| 20260901040050 | 15 | 0 | 0.0 | 4.8 | 0.00 | 0.00 | 0.00 | 57 | 1011.0 |
| 20260901035539 | 15 | 0 | 0.0 | 3.2 | 0.00 | 0.00 | 0.00 | 57 | 1011.0 |
| 20260901035038 | 15 | 0 | 0.0 | 4.8 | 0.00 | 0.00 | 0.00 | 57 | 1010.9 |
| 20260901034601 | 15 | 0 | 0.0 | 4.8 | 0.00 | 0.00 | 0.00 | 57 | 1011.0 |
| 20260901034041 | 15 | 205 | 0.0 | 6.4 | 0.00 | 0.00 | 0.00 | 57 | 1011.0 |
| 20260901033539 | 15 | 205 | 0.0 | 6.4 | 0.00 | 0.00 | 0.00 | 57 | 1010.9 |
| 20260901033052 | 15 | 206 | 0.0 | 8.0 | 0.00 | 0.00 | 0.00 | 57 | 1010.9 |
| 20260901032544 | 15 | 206 | 3.2 | 8.0 | 0.00 | 0.00 | 0.00 | 56 | 1010.9 |
| 20260901032039 | 15 | 211 | 0.0 | 8.0 | 0.00 | 0.00 | 0.00 | 57 | 1010.8 |
| 20260901031553 | 15 | 0 | 0.0 | 6.4 | 0.00 | 0.00 | 0.00 | 57 | 1010.7 |
| 20260901031038 | 15 | 254 | 1.6 | 6.4 | 0.00 | 0.00 | 0.00 | 57 | 1010.7 |
| 20260901030541 | 15 | 254 | 0.0 | 4.8 | 0.00 | 0.00 | 0.00 | 58 | 1010.6 |
| 20260901030048 | 15 | 255 | 0.0 | 3.2 | 0.00 | 0.00 | 0.00 | 57 | 1010.5 |
| 20260901025539 | 15 | 0 | 0.0 | 4.8 | 0.00 | 0.00 | 0.00 | 59 | 1010.4 |
| 20260901025043 | 15 | 0 | 0.0 | 9.7 | 0.00 | 0.00 | 0.00 | 58 | 1010.5 |
| 20260901024600 | 15 | 0 | 1.6 | 9.7 | 0.00 | 0.00 | 0.00 | 58 | 1010.4 |
| 20260901024042 | 16 | 205 | 0.0 | 9.7 | 0.00 | 0.00 | 0.00 | 58 | 1010.5 |
| 20260901023540 | 16 | 205 | 0.0 | 6.4 | 0.00 | 0.00 | 0.00 | 58 | 1010.5 |
| 20260901023052 | 16 | 190 | 0.0 | 4.8 | 0.00 | 0.00 | 0.00 | 55 | 1010.6 |
| 20260901022541 | 16 | 190 | 0.0 | 11.3 | 0.00 | 0.00 | 0.00 | 55 | 1010.4 |
| 20260901022040 | 16 | 0 | 3.2 | 11.3 | 0.00 | 0.00 | 0.00 | 55 | 1010.4 |
| 20260901021609 | 16 | 205 | 1.6 | 11.3 | 0.00 | 0.00 | 0.00 | 55 | 1010.3 |
| 20260901021045 | 16 | 0 | 0.0 | 11.3 | 0.00 | 0.00 | 0.00 | 54 | 1010.4 |
| 20260901020541 | 16 | 209 | 3.2 | 11.3 | 0.00 | 0.00 | 0.00 | 54 | 1010.3 |
| 20260901020110 | 16 | 0 | 1.6 | 11.3 | 0.00 | 0.00 | 0.00 | 54 | 1010.4 |
| 20260901015541 | 16 | 188 | 1.6 | 11.3 | 0.00 | 0.00 | 0.00 | 53 | 1010.4 |
| 20260901015042 | 16 | 0 | 1.6 | 11.3 | 0.00 | 0.00 | 0.00 | 53 | 1010.5 |